TimeEST,TemperatureF,Dew PointF,Humidity,Sea Level PressureIn,VisibilityMPH,Wind Direction,Wind SpeedMPH,Gust SpeedMPH,PrecipitationIn,Events,Conditions,WindDirDegrees,DateUTC
12:51 AM,32.0,27.0,82,30.06,10.0,Calm,Calm,-,N/A,,Overcast,0,2012-12-08 05:51:00
1:51 AM,30.0,27.0,88,30.06,10.0,Calm,Calm,-,N/A,,Overcast,0,2012-12-08 06:51:00
2:51 AM,28.9,27.0,92,30.07,10.0,Calm,Calm,-,N/A,,Overcast,0,2012-12-08 07:51:00
3:51 AM,28.0,26.1,92,30.06,10.0,Calm,Calm,-,N/A,,Partly Cloudy,0,2012-12-08 08:51:00
4:51 AM,28.0,26.1,92,30.05,10.0,Calm,Calm,-,N/A,,Scattered Clouds,0,2012-12-08 09:51:00
5:51 AM,28.9,27.0,92,30.05,10.0,Calm,Calm,-,N/A,,Overcast,0,2012-12-08 10:51:00
6:51 AM,30.0,27.0,88,30.04,10.0,Calm,Calm,-,N/A,,Overcast,0,2012-12-08 11:51:00
7:27 AM,28.4,26.6,93,29.98,10.0,Calm,Calm,-,N/A,,Overcast,0,2012-12-08 12:27:00
7:35 AM,28.4,26.6,93,29.98,9.0,Calm,Calm,-,N/A,,Overcast,0,2012-12-08 12:35:00
7:51 AM,30.0,27.0,88,30.03,9.0,Calm,Calm,-,N/A,,Overcast,0,2012-12-08 12:51:00
8:51 AM,30.0,28.0,92,30.02,7.0,Calm,Calm,-,0.00,,Overcast,0,2012-12-08 13:51:00
9:25 AM,30.2,28.4,93,29.96,6.0,Calm,Calm,-,0.00,,Overcast,0,2012-12-08 14:25:00
9:47 AM,30.2,28.4,93,29.96,7.0,Calm,Calm,-,0.00,,Overcast,0,2012-12-08 14:47:00
9:51 AM,30.9,28.9,92,30.01,7.0,Calm,Calm,-,0.00,,Overcast,0,2012-12-08 14:51:00
10:51 AM,32.0,32.0,100,29.97,4.0,Calm,Calm,-,0.00,,Overcast,0,2012-12-08 15:51:00
11:00 AM,32.0,32.0,100,29.92,4.0,Calm,Calm,-,N/A,,Overcast,0,2012-12-08 16:00:00
11:32 AM,32.0,32.0,100,29.91,4.0,Calm,Calm,-,N/A,,Overcast,0,2012-12-08 16:32:00
11:41 AM,32.0,32.0,100,29.91,4.0,Calm,Calm,-,N/A,,Overcast,0,2012-12-08 16:41:00
11:51 AM,33.1,32.0,96,29.94,4.0,Calm,Calm,-,N/A,,Overcast,0,2012-12-08 16:51:00
12:39 PM,33.8,33.8,100,29.88,4.0,Calm,Calm,-,N/A,,Overcast,0,2012-12-08 17:39:00
12:51 PM,34.0,33.1,96,29.92,4.0,Calm,Calm,-,N/A,,Overcast,0,2012-12-08 17:51:00
1:51 PM,36.0,35.1,97,29.89,10.0,South,4.6,-,N/A,,Overcast,170,2012-12-08 18:51:00
2:51 PM,37.0,35.1,93,29.88,10.0,SSE,6.9,-,N/A,,Overcast,160,2012-12-08 19:51:00
3:51 PM,37.0,35.1,93,29.88,10.0,South,3.5,-,N/A,,Overcast,180,2012-12-08 20:51:00
4:51 PM,36.0,35.1,97,29.87,5.0,South,9.2,-,N/A,,Overcast,190,2012-12-08 21:51:00
5:51 PM,37.0,35.1,93,29.88,10.0,South,5.8,-,N/A,,Overcast,190,2012-12-08 22:51:00
6:28 PM,37.4,35.6,93,29.84,10.0,South,4.6,-,N/A,,Overcast,190,2012-12-08 23:28:00
6:51 PM,37.9,36.0,93,29.88,10.0,SSE,5.8,-,N/A,,Overcast,150,2012-12-08 23:51:00
7:51 PM,39.2,37.4,93,29.86,10.0,Calm,Calm,-,N/A,,Overcast,0,2012-12-09 00:51:00
8:51 PM,39.9,37.9,93,29.91,10.0,Calm,Calm,-,N/A,,Overcast,0,2012-12-09 01:51:00
9:51 PM,41.0,39.0,93,29.92,10.0,Calm,Calm,-,N/A,,Overcast,0,2012-12-09 02:51:00
10:51 PM,41.0,39.0,93,29.95,10.0,Calm,Calm,-,N/A,,Overcast,0,2012-12-09 03:51:00
11:22 PM,44.6,37.4,76,29.92,10.0,WNW,6.9,-,N/A,,Overcast,300,2012-12-09 04:22:00
11:51 PM,44.1,37.0,76,29.98,10.0,West,6.9,-,N/A,,Overcast,270,2012-12-09 04:51:00